FW0479 Weather Reports


Display with metric or nautical units.
time (UTC)temp
F
wind
direction
speed
MPH
gust
MPH
rain 1hr
in
rain 24hr
in
rain mn
in
humidity
%
barometer
mb
20181018210122 68 90 0.0 0.0 0.00 0.00 0.00 40 1029.0
20181018205125 68 113 0.0 0.0 0.00 0.00 0.00 39 1029.0
20181018204122 69 111 1.0 4.0 0.00 0.00 0.00 39 1028.9
20181018203122 68 100 1.0 3.0 0.00 0.00 0.00 39 1029.0
20181018202121 68 109 3.0 4.0 0.00 0.00 0.00 40 1028.8
20181018201122 68 106 2.0 4.0 0.00 0.00 0.00 40 1029.0
20181018200122 69 91 3.0 5.0 0.00 0.00 0.00 38 1029.0
20181018195122 70 108 2.0 4.0 0.00 0.00 0.00 37 1029.0
20181018194122 67 122 2.0 4.0 0.00 0.00 0.00 39 1029.1
20181018193122 67 93 3.0 4.0 0.00 0.00 0.00 40 1029.3
20181018192122 68 95 1.0 3.0 0.00 0.00 0.00 41 1029.2
20181018191143 68 99 2.0 7.0 0.00 0.00 0.00 38 1029.4
20181018190122 68 74 2.0 4.0 0.00 0.00 0.00 37 1029.6
20181018185121 68 93 3.0 5.0 0.00 0.00 0.00 40 1029.6
20181018184122 68 142 2.0 3.0 0.00 0.00 0.00 41 1029.7
20181018183122 68 140 1.0 3.0 0.00 0.00 0.00 37 1029.8
20181018182123 66 96 2.0 4.0 0.00 0.00 0.00 40 1029.9
20181018181122 67 96 2.0 4.0 0.00 0.00 0.00 40 1030.0
20181018180122 67 77 2.0 5.0 0.00 0.00 0.00 39 1030.2
20181018175122 67 90 1.0 4.0 0.00 0.00 0.00 43 1030.2
20181018174122 66 25 2.0 4.0 0.00 0.00 0.00 41 1030.5
20181018173122 66 127 2.0 4.0 0.00 0.00 0.00 42 1030.8
20181018172122 66 115 1.0 5.0 0.00 0.00 0.00 44 1030.9
20181018171122 64 38 2.0 5.0 0.00 0.00 0.00 43 1031.1
20181018170122 64 70 2.0 4.0 0.00 0.00 0.00 43 1031.1
20181018165122 64 87 2.0 4.0 0.00 0.00 0.00 44 1031.1
20181018164123 63 90 1.0 3.0 0.00 0.00 0.00 44 1031.3
20181018163122 62 60 2.0 5.0 0.00 0.00 0.00 45 1031.3
20181018162122 62 81 2.0 5.0 0.00 0.00 0.00 44 1031.4
20181018161122 61 82 3.0 5.0 0.00 0.00 0.00 45 1031.4
20181018160122 60 77 2.0 4.0 0.00 0.00 0.00 47 1031.6
20181018155122 60 92 2.0 4.0 0.00 0.00 0.00 51 1031.6
20181018154123 59 54 2.0 6.0 0.00 0.00 0.00 54 1031.6
20181018153122 58 337 2.0 3.0 0.00 0.00 0.00 53 1031.7
20181018152122 58 37 1.0 4.0 0.00 0.00 0.00 54 1031.7
20181018151122 57 96 2.0 4.0 0.00 0.00 0.00 55 1031.6
20181018150122 57 95 1.0 4.0 0.00 0.00 0.00 59 1031.5
20181018145122 57 48 2.0 5.0 0.00 0.00 0.00 62 1031.5
20181018144124 56 101 1.0 4.0 0.00 0.00 0.00 63 1031.6
20181018143124 56 51 0.0 3.0 0.00 0.00 0.00 64 1031.6
20181018142122 56 60 2.0 5.0 0.00 0.00 0.00 64 1031.3
20181018141124 56 89 3.0 5.0 0.00 0.00 0.00 63 1031.4
20181018140122 55 64 3.0 5.0 0.00 0.00 0.00 64 1031.3
20181018135124 55 76 2.0 5.0 0.00 0.00 0.00 66 1031.3
20181018134123 54 71 1.0 4.0 0.00 0.00 0.00 67 1031.2
20181018133123 54 56 2.0 5.0 0.00 0.00 0.00 70 1031.0
20181018132123 54 91 1.0 3.0 0.00 0.00 0.00 72 1030.8
20181018131123 54 93 3.0 5.0 0.00 0.00 0.00 70 1030.6
20181018130143 53 93 3.0 4.0 0.00 0.00 0.00 74 1030.5
20181018125122 52 96 1.0 4.0 0.00 0.00 0.00 78 1030.5
20181018124123 51 82 1.0 3.0 0.00 0.00 0.00 81 1030.2
20181018123123 50 90 0.0 0.0 0.00 0.01 0.00 85 1029.8
20181018122122 48 68 0.0 0.0 0.00 0.01 0.00 88 1029.8
20181018121121 48 113 0.0 0.0 0.00 0.01 0.00 88 1029.8
20181018120123 48 68 0.0 0.0 0.00 0.01 0.00 89 1029.6
20181018115122 48 68 0.0 0.0 0.00 0.01 0.00 90 1029.6
20181018114124 48 90 0.0 0.0 0.00 0.01 0.00 90 1029.6
20181018113121 48 315 0.0 0.0 0.00 0.01 0.00 91 1029.2
20181018112122 49 338 0.0 0.0 0.00 0.01 0.00 89 1029.1
20181018111121 49 270 0.0 0.0 0.00 0.01 0.00 87 1029.2
20181018110121 49 338 0.0 0.0 0.00 0.01 0.00 87 1028.8
20181018105123 49 90 0.0 0.0 0.00 0.01 0.00 88 1028.8
20181018104121 49 113 0.0 0.0 0.00 0.01 0.00 89 1029.0
20181018103122 49 68 0.0 0.0 0.00 0.01 0.00 89 1028.8
20181018102122 49 225 0.0 0.0 0.00 0.01 0.00 89 1028.6
20181018101122 50 135 0.0 0.0 0.00 0.01 0.00 89 1028.3
20181018100121 50 90 0.0 0.0 0.00 0.01 0.00 90 1028.3
20181018095142 50 180 0.0 0.0 0.00 0.01 0.00 89 1028.3
20181018094121 50 90 0.0 0.0 0.00 0.01 0.00 89 1028.1
20181018093124 50 293 0.0 0.0 0.00 0.01 0.00 89 1027.8
20181018092121 50 293 0.0 0.0 0.00 0.01 0.00 89 1027.8
20181018091122 50 113 0.0 0.0 0.00 0.01 0.00 88 1027.6
20181018090121 50 90 0.0 0.0 0.00 0.01 0.00 88 1027.4
20181018085121 50 90 0.0 0.0 0.00 0.01 0.00 89 1027.4
20181018084121 50 270 0.0 0.0 0.00 0.01 0.00 88 1027.4
20181018083124 51 293 0.0 0.0 0.00 0.01 0.00 87 1027.2
20181018082122 51 315 0.0 0.0 0.00 0.01 0.00 86 1026.8
20181018081123 51 248 0.0 0.0 0.00 0.01 0.00 85 1026.9
20181018080121 52 270 0.0 0.0 0.00 0.01 0.00 84 1026.8
20181018075122 52 45 0.0 0.0 0.00 0.01 0.00 84 1026.8
20181018074121 52 180 0.0 0.0 0.00 0.01 0.00 83 1026.6
20181018073121 51 68 0.0 0.0 0.00 0.01 0.00 85 1026.5
20181018072126 51 300 1.0 3.0 0.00 0.01 0.00 87 1026.6
20181018071123 51 337 0.0 3.0 0.00 0.01 0.00 86 1026.6
20181018070122 51 270 0.0 0.0 0.00 0.01 0.00 85 1026.4
20181018065121 51 270 0.0 0.0 0.00 0.01 0.00 85 1026.4
20181018064125 51 360 0.0 0.0 0.00 0.01 0.00 85 1026.4
20181018063121 52 270 0.0 0.0 0.00 0.01 0.00 83 1026.1
20181018062122 53 270 0.0 0.0 0.00 0.01 0.00 82 1026.0
20181018061122 53 135 0.0 0.0 0.00 0.01 0.00 82 1025.8
20181018060122 53 180 0.0 0.0 0.00 0.01 0.00 80 1025.7
20181018055121 53 113 0.0 0.0 0.00 0.01 0.00 79 1025.7
20181018054126 53 113 0.0 0.0 0.00 0.01 0.00 80 1025.8
20181018053124 53 298 1.0 5.0 0.00 0.01 0.00 80 1025.6
20181018052121 53 135 0.0 0.0 0.00 0.01 0.00 82 1025.7
20181018051122 52 326 0.0 2.0 0.00 0.01 0.00 82 1025.6
20181018050122 52 180 0.0 0.0 0.00 0.01 0.00 83 1025.3
20181018045122 52 278 0.0 3.0 0.00 0.01 0.00 84 1025.3
20181018044122 53 360 0.0 0.0 0.00 0.01 0.00 83 1025.5
20181018043122 53 113 0.0 0.0 0.00 0.01 0.00 83 1025.5
20181018042122 53 203 0.0 0.0 0.00 0.01 0.00 83 1025.5
20181018041122 54 225 0.0 0.0 0.00 0.01 0.00 80 1025.5
20181018040122 53 225 0.0 1.0 0.00 0.01 0.00 83 1025.3
20181018035122 54 135 0.0 0.0 0.00 0.01 0.01 81 1025.3
20181018034122 54 158 0.0 0.0 0.00 0.01 0.01 81 1025.4
20181018033122 54 180 0.0 0.0 0.00 0.01 0.01 81 1025.3
20181018032123 54 225 0.0 0.0 0.00 0.01 0.01 81 1025.2
20181018031122 55 225 0.0 0.0 0.00 0.01 0.01 79 1025.0
20181018030126 55 68 0.0 0.0 0.00 0.01 0.01 76 1025.2
20181018025142 56 180 0.0 0.0 0.00 0.01 0.01 74 1025.2
20181018024122 57 360 0.0 0.0 0.00 0.01 0.01 71 1025.2
20181018023122 57 203 0.0 0.0 0.00 0.02 0.01 71 1025.0
20181018022122 58 225 0.0 1.0 0.00 0.02 0.01 68 1024.9
20181018021121 58 293 0.0 0.0 0.00 0.02 0.01 68 1024.6
20181018020122 58 275 0.0 2.0 0.00 0.02 0.01 67 1024.6
20181018015123 58 268 0.0 3.0 0.00 0.02 0.01 67 1024.6
20181018014122 59 338 0.0 0.0 0.00 0.02 0.01 68 1024.4
20181018013122 59 360 0.0 0.0 0.00 0.02 0.01 69 1024.5
20181018012126 60 296 1.0 2.0 0.00 0.05 0.01 67 1024.3
20181018011122 60 289 2.0 6.0 0.00 0.06 0.01 67 1024.3
20181018010122 59 323 2.0 4.0 0.00 0.07 0.01 68 1023.9
20181018005122 59 241 0.0 3.0 0.00 0.08 0.01 69 1023.9
20181018004122 59 275 0.0 3.0 0.00 0.08 0.01 73 1023.9
20181018003122 59 286 1.0 3.0 0.00 0.08 0.01 74 1023.6
20181018002122 59 158 0.0 3.0 0.00 0.08 0.01 77 1023.7
20181018001122 59 225 0.0 0.0 0.00 0.08 0.01 77 1023.2
20181018000122 60 270 0.0 0.0 0.00 0.09 0.01 72 1023.0
20181017235142 60 248 0.0 0.0 0.00 0.14 0.01 72 1023.0
20181017234122 61 225 0.0 0.0 0.00 0.14 0.01 69 1022.9
20181017233123 61 270 0.0 0.0 0.00 0.14 0.01 70 1022.7
20181017232122 62 270 0.0 0.0 0.00 0.14 0.01 67 1022.5
20181017231123 63 270 0.0 0.0 0.00 0.14 0.01 61 1022.5
20181017230122 65 180 0.0 0.0 0.00 0.14 0.01 64 1022.3
20181017225127 66 225 0.0 0.0 0.00 0.14 0.01 57 1022.3
20181017224123 68 158 0.0 0.0 0.00 0.14 0.01 58 1022.3
20181017223123 70 135 0.0 0.0 0.00 0.14 0.01 54 1022.1
20181017222122 72 243 2.0 3.0 0.00 0.14 0.01 46 1021.9